| time (UTC) | temp F | wind direction | speed knots | gust knots | rain 1hr in | rain 24hr in | rain mn in | humidity % | barometer mb |
| 20260831010304 | 92 | 155 | 6.1 | 13.0 | 0.00 | 0.00 | 0.00 | 41 | 1012.1 |
| 20260831004804 | 92 | 154 | 7.8 | 13.9 | 0.00 | 0.00 | 0.00 | 40 | 1012.1 |
| 20260831004304 | 92 | 154 | 4.3 | 7.8 | 0.00 | 0.00 | 0.00 | 39 | 1012.1 |
| 20260831003804 | 93 | 167 | 2.6 | 5.2 | 0.00 | 0.00 | 0.00 | 39 | 1012.0 |
| 20260831003304 | 93 | 157 | 1.7 | 7.0 | 0.00 | 0.00 | 0.00 | 39 | 1012.0 |
| 20260831001804 | 93 | 144 | 0.9 | 2.6 | 0.00 | 0.00 | 0.00 | 38 | 1012.0 |
| 20260831001304 | 93 | 141 | 5.2 | 10.4 | 0.00 | 0.00 | 0.00 | 38 | 1012.0 |
| 20260831000804 | 94 | 166 | 4.3 | 7.8 | 0.00 | 0.00 | 0.00 | 38 | 1011.9 |
| 20260831000305 | 94 | 160 | 2.6 | 8.7 | 0.00 | 0.00 | 0.00 | 38 | 1012.0 |
| 20260830234804 | 94 | 155 | 4.3 | 8.7 | 0.00 | 0.00 | 0.00 | 37 | 1012.0 |
| 20260830234304 | 94 | 147 | 7.8 | 13.9 | 0.00 | 0.00 | 0.00 | 37 | 1012.0 |
| 20260830233805 | 94 | 153 | 6.1 | 11.3 | 0.00 | 0.00 | 0.00 | 36 | 1012.1 |
| 20260830233305 | 94 | 151 | 6.1 | 13.0 | 0.00 | 0.00 | 0.00 | 36 | 1012.1 |
| 20260830231804 | 94 | 129 | 7.8 | 13.0 | 0.00 | 0.00 | 0.00 | 36 | 1012.1 |
| 20260830231304 | 95 | 154 | 8.7 | 15.6 | 0.00 | 0.00 | 0.00 | 36 | 1012.1 |
| 20260830230804 | 95 | 160 | 6.1 | 13.9 | 0.00 | 0.00 | 0.00 | 35 | 1012.1 |
| 20260830230304 | 95 | 160 | 6.1 | 13.9 | 0.00 | 0.00 | 0.00 | 35 | 1012.1 |
| 20260830224805 | 95 | 165 | 6.1 | 15.6 | 0.00 | 0.00 | 0.00 | 37 | 1012.2 |
| 20260830224304 | 95 | 146 | 5.2 | 12.2 | 0.00 | 0.00 | 0.00 | 36 | 1012.3 |
| 20260830223304 | 95 | 159 | 5.2 | 14.8 | 0.00 | 0.00 | 0.00 | 35 | 1012.3 |
| 20260830221804 | 95 | 118 | 6.1 | 12.2 | 0.00 | 0.00 | 0.00 | 36 | 1012.3 |
| 20260830221304 | 95 | 153 | 9.6 | 13.0 | 0.00 | 0.00 | 0.00 | 36 | 1012.4 |
| 20260830220804 | 95 | 153 | 7.8 | 14.8 | 0.00 | 0.00 | 0.00 | 37 | 1012.4 |
| 20260830220304 | 95 | 144 | 9.6 | 15.6 | 0.00 | 0.00 | 0.00 | 38 | 1012.3 |
| 20260830214304 | 95 | 185 | 5.2 | 13.0 | 0.00 | 0.00 | 0.00 | 38 | 1012.5 |
| 20260830213804 | 95 | 177 | 7.8 | 18.2 | 0.00 | 0.00 | 0.00 | 38 | 1012.5 |
| 20260830213305 | 95 | 188 | 6.1 | 15.6 | 0.00 | 0.00 | 0.00 | 39 | 1012.6 |
| 20260830211304 | 94 | 134 | 7.8 | 14.8 | 0.00 | 0.00 | 0.00 | 40 | 1013.0 |
| 20260830210804 | 94 | 158 | 7.0 | 21.7 | 0.00 | 0.00 | 0.00 | 39 | 1013.1 |
| 20260830210304 | 94 | 158 | 4.3 | 18.2 | 0.00 | 0.00 | 0.00 | 40 | 1013.1 |
| 20260830204804 | 94 | 148 | 11.3 | 20.9 | 0.00 | 0.00 | 0.00 | 41 | 1013.4 |
| 20260830203804 | 94 | 143 | 9.6 | 13.0 | 0.00 | 0.00 | 0.00 | 41 | 1013.5 |
| 20260830203304 | 95 | 155 | 10.4 | 15.6 | 0.00 | 0.00 | 0.00 | 40 | 1013.5 |
| 20260830201804 | 94 | 178 | 3.5 | 11.3 | 0.00 | 0.00 | 0.00 | 42 | 1013.6 |
| 20260830200804 | 94 | 138 | 10.4 | 17.4 | 0.00 | 0.00 | 0.00 | 42 | 1013.8 |
| 20260830200304 | 94 | 139 | 10.4 | 15.6 | 0.00 | 0.00 | 0.00 | 43 | 1013.9 |
| 20260830194804 | 94 | 163 | 11.3 | 22.6 | 0.00 | 0.00 | 0.00 | 44 | 1014.2 |
| 20260830194304 | 93 | 157 | 6.1 | 17.4 | 0.00 | 0.00 | 0.00 | 44 | 1014.2 |
| 20260830193804 | 94 | 162 | 5.2 | 13.0 | 0.00 | 0.00 | 0.00 | 43 | 1014.3 |
| 20260830193304 | 94 | 154 | 9.6 | 20.0 | 0.00 | 0.00 | 0.00 | 44 | 1014.4 |
| 20260830191804 | 93 | 145 | 11.3 | 17.4 | 0.00 | 0.00 | 0.00 | 44 | 1014.5 |
| 20260830191305 | 93 | 143 | 12.2 | 15.6 | 0.00 | 0.00 | 0.00 | 44 | 1014.6 |
| 20260830190804 | 94 | 163 | 10.4 | 14.8 | 0.00 | 0.00 | 0.00 | 44 | 1014.7 |
| 20260830190304 | 94 | 130 | 5.2 | 13.9 | 0.00 | 0.00 | 0.00 | 45 | 1014.8 |
| 20260830184804 | 92 | 171 | 6.1 | 13.0 | 0.00 | 0.00 | 0.00 | 46 | 1015.0 |
| 20260830184304 | 92 | 173 | 9.6 | 13.0 | 0.00 | 0.00 | 0.00 | 47 | 1015.1 |
| 20260830183804 | 92 | 161 | 7.8 | 17.4 | 0.00 | 0.00 | 0.00 | 47 | 1015.3 |
| 20260830181804 | 92 | 158 | 8.7 | 13.0 | 0.00 | 0.00 | 0.00 | 49 | 1015.5 |
| 20260830180804 | 91 | 167 | 7.8 | 15.6 | 0.00 | 0.00 | 0.00 | 50 | 1015.7 |
| 20260830180304 | 90 | 163 | 5.2 | 14.8 | 0.00 | 0.00 | 0.00 | 52 | 1015.9 |
| 20260830174805 | 92 | 170 | 4.3 | 11.3 | 0.00 | 0.00 | 0.00 | 50 | 1016.2 |
| 20260830174304 | 91 | 162 | 6.1 | 14.8 | 0.00 | 0.00 | 0.00 | 50 | 1016.2 |
| 20260830173804 | 91 | 174 | 6.1 | 8.7 | 0.00 | 0.00 | 0.00 | 51 | 1016.3 |
| 20260830173304 | 90 | 117 | 2.6 | 14.8 | 0.00 | 0.00 | 0.00 | 52 | 1016.4 |
| 20260830171804 | 90 | 143 | 8.7 | 12.2 | 0.00 | 0.00 | 0.00 | 53 | 1016.6 |
| 20260830171304 | 90 | 119 | 5.2 | 11.3 | 0.00 | 0.00 | 0.00 | 53 | 1016.7 |
| 20260830170804 | 89 | 127 | 4.3 | 8.7 | 0.00 | 0.00 | 0.00 | 53 | 1016.8 |
| 20260830164804 | 88 | 172 | 2.6 | 7.0 | 0.00 | 0.00 | 0.00 | 54 | 1016.8 |
| 20260830163804 | 88 | 117 | 7.0 | 12.2 | 0.00 | 0.00 | 0.00 | 54 | 1016.9 |
| 20260830163304 | 88 | 176 | 7.8 | 12.2 | 0.00 | 0.00 | 0.00 | 55 | 1017.0 |
| 20260830161804 | 87 | 199 | 3.5 | 12.2 | 0.00 | 0.00 | 0.00 | 57 | 1017.0 |
| 20260830161304 | 87 | 152 | 5.2 | 13.0 | 0.00 | 0.00 | 0.00 | 57 | 1017.0 |
| 20260830160804 | 87 | 172 | 5.2 | 13.0 | 0.00 | 0.00 | 0.00 | 57 | 1017.0 |
| 20260830160304 | 87 | 172 | 7.8 | 15.6 | 0.00 | 0.00 | 0.00 | 57 | 1017.0 |
| 20260830154304 | 85 | 161 | 7.8 | 12.2 | 0.00 | 0.00 | 0.00 | 60 | 1016.8 |
| 20260830153804 | 86 | 152 | 7.0 | 13.0 | 0.00 | 0.00 | 0.00 | 63 | 1016.8 |
| 20260830153304 | 85 | 184 | 5.2 | 13.0 | 0.00 | 0.00 | 0.00 | 64 | 1016.8 |
| 20260830151804 | 84 | 163 | 4.3 | 10.4 | 0.00 | 0.00 | 0.00 | 67 | 1016.7 |
| 20260830151303 | 84 | 162 | 6.1 | 11.3 | 0.00 | 0.00 | 0.00 | 68 | 1016.8 |
| 20260830150804 | 84 | 178 | 4.3 | 10.4 | 0.00 | 0.00 | 0.00 | 68 | 1016.8 |
| 20260830150304 | 83 | 183 | 3.5 | 12.2 | 0.00 | 0.00 | 0.00 | 69 | 1016.8 |
| 20260830144805 | 82 | 173 | 5.2 | 8.7 | 0.00 | 0.00 | 0.00 | 70 | 1016.7 |
| 20260830144304 | 82 | 161 | 4.3 | 7.0 | 0.00 | 0.00 | 0.00 | 71 | 1016.7 |
| 20260830143804 | 81 | 176 | 4.3 | 10.4 | 0.00 | 0.00 | 0.00 | 71 | 1016.8 |
| 20260830143304 | 81 | 172 | 5.2 | 11.3 | 0.00 | 0.00 | 0.00 | 72 | 1016.8 |
| 20260830141804 | 80 | 217 | 2.6 | 7.0 | 0.00 | 0.00 | 0.00 | 73 | 1016.9 |
| 20260830141304 | 80 | 178 | 1.7 | 2.6 | 0.00 | 0.00 | 0.00 | 74 | 1016.8 |
| 20260830140804 | 80 | 177 | 4.3 | 8.7 | 0.00 | 0.00 | 0.00 | 74 | 1016.7 |
| 20260830140304 | 80 | 182 | 2.6 | 7.8 | 0.00 | 0.00 | 0.00 | 74 | 1016.6 |
| 20260830134804 | 79 | 180 | 5.2 | 8.7 | 0.00 | 0.00 | 0.00 | 75 | 1016.6 |
| 20260830133803 | 78 | 149 | 5.2 | 8.7 | 0.00 | 0.00 | 0.00 | 76 | 1016.6 |
| 20260830133304 | 78 | 165 | 3.5 | 7.0 | 0.00 | 0.00 | 0.00 | 76 | 1016.5 |
| 20260830131804 | 77 | 145 | 2.6 | 5.2 | 0.00 | 0.00 | 0.00 | 77 | 1016.4 |
| 20260830131304 | 77 | 178 | 2.6 | 4.3 | 0.00 | 0.00 | 0.00 | 77 | 1016.4 |
| 20260830130804 | 76 | 167 | 2.6 | 7.8 | 0.00 | 0.01 | 0.00 | 77 | 1016.4 |
| 20260830130305 | 76 | 180 | 1.7 | 4.3 | 0.00 | 0.01 | 0.00 | 77 | 1016.4 |
| 20260830124804 | 75 | 196 | 1.7 | 2.6 | 0.00 | 0.01 | 0.00 | 78 | 1016.2 |
| 20260830124304 | 75 | 196 | 1.7 | 2.6 | 0.00 | 0.01 | 0.00 | 78 | 1016.1 |
| 20260830123804 | 75 | 202 | 1.7 | 2.6 | 0.00 | 0.01 | 0.00 | 78 | 1016.1 |
| 20260830123304 | 75 | 202 | 0.9 | 2.6 | 0.00 | 0.01 | 0.00 | 77 | 1016.0 |
| 20260830121803 | 75 | 202 | 0.0 | 1.7 | 0.00 | 0.01 | 0.00 | 77 | 1015.9 |
| 20260830120804 | 75 | 202 | 0.9 | 1.7 | 0.00 | 0.01 | 0.00 | 77 | 1015.9 |
| 20260830120304 | 75 | 202 | 0.9 | 10.4 | 0.00 | 0.01 | 0.00 | 77 | 1015.9 |
| 20260830114804 | 75 | 169 | 1.7 | 5.2 | 0.00 | 0.01 | 0.00 | 77 | 1015.8 |
| 20260830114304 | 75 | 153 | 1.7 | 4.3 | 0.00 | 0.01 | 0.00 | 77 | 1015.8 |
| 20260830113803 | 75 | 167 | 1.7 | 4.3 | 0.00 | 0.01 | 0.00 | 77 | 1015.8 |
| 20260830113304 | 75 | 167 | 2.6 | 5.2 | 0.00 | 0.01 | 0.00 | 77 | 1015.8 |
| 20260830111803 | 75 | 170 | 1.7 | 5.2 | 0.00 | 0.01 | 0.00 | 76 | 1015.6 |
| 20260830111304 | 75 | 170 | 2.6 | 5.2 | 0.00 | 0.01 | 0.00 | 76 | 1015.5 |
| 20260830110304 | 75 | 172 | 0.9 | 5.2 | 0.00 | 0.01 | 0.00 | 76 | 1015.5 |
| 20260830104304 | 75 | 171 | 0.9 | 4.3 | 0.00 | 0.01 | 0.00 | 76 | 1015.5 |
| 20260830103803 | 75 | 169 | 0.9 | 4.3 | 0.00 | 0.01 | 0.00 | 76 | 1015.4 |
| 20260830101304 | 75 | 148 | 0.9 | 2.6 | 0.00 | 0.01 | 0.00 | 75 | 1015.4 |
| 20260830100804 | 75 | 148 | 0.0 | 1.7 | 0.00 | 0.01 | 0.00 | 75 | 1015.4 |
| 20260830100304 | 75 | 147 | 0.9 | 4.3 | 0.00 | 0.01 | 0.00 | 75 | 1015.4 |
| 20260830094304 | 76 | 156 | 0.0 | 1.7 | 0.00 | 0.01 | 0.00 | 74 | 1015.3 |
| 20260830093804 | 76 | 156 | 0.0 | 1.7 | 0.00 | 0.01 | 0.00 | 74 | 1015.3 |
| 20260830091804 | 77 | 156 | 0.0 | 1.7 | 0.00 | 0.01 | 0.00 | 72 | 1015.3 |
| 20260830091303 | 77 | 156 | 0.9 | 1.7 | 0.00 | 0.01 | 0.00 | 72 | 1015.3 |
| 20260830090804 | 77 | 156 | 0.9 | 5.2 | 0.00 | 0.01 | 0.00 | 72 | 1015.4 |
| 20260830090304 | 77 | 156 | 1.7 | 7.0 | 0.00 | 0.01 | 0.00 | 72 | 1015.3 |
| 20260830084804 | 78 | 171 | 2.6 | 5.2 | 0.00 | 0.01 | 0.00 | 71 | 1015.4 |
| 20260830084305 | 78 | 174 | 2.6 | 4.3 | 0.00 | 0.01 | 0.00 | 71 | 1015.4 |
| 20260830083805 | 78 | 167 | 5.2 | 8.7 | 0.00 | 0.01 | 0.00 | 71 | 1015.4 |
| 20260830083305 | 78 | 165 | 3.5 | 10.4 | 0.00 | 0.01 | 0.00 | 71 | 1015.4 |
| 20260830080805 | 79 | 160 | 5.2 | 7.8 | 0.00 | 0.01 | 0.00 | 69 | 1015.5 |
| 20260830080305 | 79 | 163 | 3.5 | 10.4 | 0.00 | 0.01 | 0.00 | 69 | 1015.5 |
| 20260830073805 | 79 | 158 | 3.5 | 8.7 | 0.00 | 0.01 | 0.00 | 67 | 1015.7 |
| 20260830073305 | 80 | 153 | 3.5 | 10.4 | 0.00 | 0.01 | 0.00 | 67 | 1015.7 |
| 20260830071805 | 80 | 162 | 3.5 | 10.4 | 0.00 | 0.01 | 0.00 | 68 | 1015.8 |
| 20260830071305 | 80 | 167 | 2.6 | 7.8 | 0.00 | 0.01 | 0.00 | 68 | 1015.6 |
| 20260830070805 | 80 | 159 | 4.3 | 8.7 | 0.00 | 0.01 | 0.00 | 68 | 1015.7 |
| 20260830070305 | 80 | 149 | 2.6 | 7.8 | 0.00 | 0.01 | 0.00 | 69 | 1015.8 |
| 20260830064804 | 81 | 180 | 1.7 | 4.3 | 0.00 | 0.01 | 0.00 | 68 | 1015.8 |
| 20260830064305 | 81 | 183 | 1.7 | 5.2 | 0.00 | 0.01 | 0.00 | 67 | 1015.8 |
| 20260830063804 | 81 | 180 | 0.9 | 4.3 | 0.00 | 0.01 | 0.00 | 67 | 1015.7 |
| 20260830063305 | 81 | 179 | 1.7 | 7.8 | 0.00 | 0.01 | 0.00 | 67 | 1015.7 |
| 20260830061805 | 82 | 181 | 2.6 | 7.8 | 0.00 | 0.01 | 0.00 | 66 | 1015.8 |
| 20260830061305 | 82 | 156 | 4.3 | 7.0 | 0.00 | 0.01 | 0.00 | 66 | 1015.8 |
| 20260830060805 | 82 | 168 | 4.3 | 7.8 | 0.00 | 0.01 | 0.00 | 66 | 1015.7 |
| 20260830060305 | 82 | 163 | 4.3 | 10.4 | 0.00 | 0.01 | 0.00 | 65 | 1015.7 |
| 20260830054305 | 83 | 168 | 4.3 | 7.8 | 0.00 | 0.01 | 0.00 | 64 | 1015.6 |
| 20260830053805 | 83 | 170 | 4.3 | 13.9 | 0.00 | 0.01 | 0.00 | 64 | 1015.6 |
| 20260830053305 | 83 | 166 | 5.2 | 8.7 | 0.00 | 0.01 | 0.00 | 64 | 1015.6 |
| 20260830051805 | 84 | 168 | 5.2 | 12.2 | 0.00 | 0.01 | 0.00 | 63 | 1015.6 |
| 20260830051305 | 84 | 164 | 7.8 | 13.9 | 0.00 | 0.01 | 0.00 | 62 | 1015.5 |
| 20260830050805 | 84 | 164 | 6.1 | 15.6 | 0.00 | 0.01 | 0.00 | 62 | 1015.5 |
| 20260830050305 | 84 | 156 | 7.8 | 13.9 | 0.00 | 0.01 | 0.00 | 62 | 1015.5 |
| 20260830044805 | 85 | 161 | 7.8 | 13.9 | 0.00 | 0.01 | 0.01 | 61 | 1015.5 |
| 20260830044305 | 85 | 157 | 11.3 | 18.2 | 0.00 | 0.01 | 0.01 | 60 | 1015.5 |
| 20260830043805 | 85 | 159 | 8.7 | 13.9 | 0.00 | 0.01 | 0.01 | 60 | 1015.5 |
| 20260830041805 | 86 | 163 | 10.4 | 20.9 | 0.00 | 0.01 | 0.01 | 58 | 1015.5 |
| 20260830041305 | 86 | 157 | 9.6 | 15.6 | 0.00 | 0.01 | 0.01 | 57 | 1015.5 |
| 20260830040305 | 86 | 163 | 10.4 | 20.0 | 0.00 | 0.01 | 0.01 | 56 | 1015.4 |
| 20260830034805 | 87 | 162 | 7.8 | 17.4 | 0.00 | 0.01 | 0.01 | 54 | 1015.4 |
| 20260830034305 | 87 | 154 | 9.6 | 17.4 | 0.00 | 0.01 | 0.01 | 53 | 1015.4 |
| 20260830033805 | 87 | 157 | 11.3 | 15.6 | 0.00 | 0.01 | 0.01 | 53 | 1015.4 |
| 20260830033305 | 87 | 156 | 10.4 | 14.8 | 0.00 | 0.01 | 0.01 | 52 | 1015.3 |
| 20260830031805 | 88 | 159 | 7.8 | 12.2 | 0.00 | 0.01 | 0.01 | 50 | 1015.1 |
| 20260830031305 | 88 | 143 | 5.2 | 8.7 | 0.00 | 0.01 | 0.01 | 49 | 1015.1 |
| 20260830030805 | 88 | 145 | 5.2 | 10.4 | 0.00 | 0.01 | 0.01 | 48 | 1015.1 |
| 20260830030305 | 88 | 143 | 6.1 | 11.3 | 0.00 | 0.01 | 0.01 | 48 | 1015.1 |
| 20260830024305 | 89 | 145 | 5.2 | 8.7 | 0.00 | 0.01 | 0.01 | 46 | 1014.8 |
| 20260830023805 | 89 | 123 | 4.3 | 8.7 | 0.00 | 0.01 | 0.01 | 46 | 1014.8 |
| 20260830021805 | 89 | 136 | 2.6 | 4.3 | 0.00 | 0.01 | 0.01 | 47 | 1014.3 |
| 20260830021305 | 89 | 146 | 2.6 | 5.2 | 0.00 | 0.01 | 0.01 | 47 | 1014.2 |
| 20260830020805 | 90 | 150 | 1.7 | 4.3 | 0.00 | 0.01 | 0.01 | 47 | 1014.1 |
| 20260830020305 | 90 | 151 | 2.6 | 7.8 | 0.00 | 0.01 | 0.01 | 46 | 1014.0 |
| 20260830014806 | 90 | 141 | 4.3 | 8.7 | 0.00 | 0.01 | 0.01 | 46 | 1013.9 |
| 20260830014304 | 90 | 143 | 4.3 | 8.7 | 0.00 | 0.01 | 0.01 | 46 | 1013.8 |
| 20260830013804 | 90 | 142 | 1.7 | 4.3 | 0.00 | 0.01 | 0.01 | 46 | 1013.7 |
| 20260830013305 | 90 | 142 | 2.6 | 4.3 | 0.00 | 0.01 | 0.01 | 46 | 1013.7 |
| 20260830011305 | 91 | 143 | 3.5 | 4.3 | 0.00 | 0.01 | 0.01 | 46 | 1013.6 |